Wind_Speed
44 44 43 44 44 44 44 44 43 43 42 41 38 37 36 36 35 33 32 32 31 31 30 30 29 30 30
46 46 46 47 47 48 49 49 49 49 48 45 43 42 42 42 40 39 38 37 36 35 35 34 32 31 30
52 51 50 50 51 52 52 52 53 53 53 52 51 49 48 48 47 47 45 44 43 42 41 39 37 36 34
56 57 56 55 55 55 57 57 57 56 56 55 55 53 53 52 52 52 49 48 46 44 43 42 42 41 40
59 60 59 60 59 59 60 61 62 61 61 60 58 57 55 53 52 52 51 50 48 46 45 43 42 42 41
63 66 65 63 65 65 65 64 64 65 64 66 65 64 62 59 57 54 53 53 51 49 45 45 43 43 41
64 65 68 66 63 64 67 67 67 69 66 65 66 67 67 64 62 61 59 57 56 54 52 49 46 45 43
60 58 59 62 63 63 66 65 69 71 71 68 67 66 68 69 66 65 63 62 60 58 56 54 52 50 47
57 57 59 62 61 63 66 67 69 71 73 72 71 67 64 68 68 68 68 66 63 61 60 59 57 55 52
56 58 59 59 62 63 63 65 68 71 72 68 67 68 61 61 65 65 64 65 65 66 64 62 61 58 57
56 57 58 61 61 62 64 65 66 65 66 62 60 60 61 57 57 64 63 62 61 60 63 64 64 63 60
55 55 56 57 59 60 62 64 64 59 57 55 54 53 53 53 53 55 58 59 57 57 57 59 61 62 61
56 57 58 58 58 56 54 52 51 50 49 47 46 46 47 47 47 50 50 53 55 53 56 58 60 62 63
53 50 48 45 44 43 43 43 43 43 42 41 40 39 39 41 40 41 43 44 48 47 46 50 55 58 61
39 37 37 38 38 38 38 37 37 37 38 38 37 36 35 35 37 37 38 39 40 40 39 40 44 47 52
35 35 35 35 34 35 34 34 35 35 35 34 34 33 34 34 35 37 36 37 38 38 38 37 39 40 43
31 32 32 32 32 33 33 33 34 35 35 34 33 31 32 34 35 35 37 37 38 37 35 36 37 39 41
Wind_Direction
270 270 270 269 268 268 268 267 267 266 266 265 265 266 266 267 267 266 265 266 269 270 270 270 271 273 275
271 271 271 271 270 270 269 268 268 266 266 265 263 263 265 266 267 268 268 270 271 271 270 269 269 271 273
275 276 275 274 274 272 272 271 270 270 269 268 266 265 264 265 266 267 268 269 269 269 270 269 268 269 270
275 276 278 278 276 275 275 273 272 270 269 268 267 266 265 264 266 267 267 266 266 266 265 266 266 265 266
272 273 275 277 277 277 275 275 274 273 273 271 270 268 266 265 264 265 265 265 265 264 264 263 262 262 262
270 273 275 276 276 278 276 276 275 273 274 272 271 270 268 267 267 266 265 266 266 266 264 262 260 258 259
267 270 275 276 277 274 276 279 278 274 273 274 272 272 269 267 266 265 264 264 263 264 264 262 259 258 257
265 265 266 269 271 272 276 278 280 280 279 281 276 276 271 267 267 265 263 262 262 262 262 261 260 259 258
263 262 264 266 267 272 275 278 280 283 284 284 282 281 279 275 271 267 263 261 261 260 258 258 258 258 257
261 261 263 264 267 272 273 277 281 285 286 284 283 280 278 276 274 271 268 263 260 258 257 256 255 254 255
266 267 269 271 272 273 276 279 281 283 282 281 279 278 276 271 268 269 267 265 263 259 255 253 252 251 251
274 274 275 275 276 278 279 279 279 277 276 276 274 272 269 267 264 262 262 261 256 254 249 247 246 245 245
274 276 275 275 275 275 275 275 274 273 272 271 270 270 268 264 260 260 257 257 253 248 244 241 239 237 236
270 272 272 273 274 275 276 277 278 277 275 273 271 268 266 264 259 254 253 251 253 248 244 241 238 235 234
270 271 273 274 275 276 277 279 280 280 279 277 273 270 266 262 261 253 245 246 245 247 247 245 241 239 237
269 271 273 275 277 278 278 279 280 280 280 280 278 275 271 265 256 253 248 243 244 242 243 245 244 238 238
267 270 272 273 275 277 278 279 279 281 281 279 277 274 272 270 268 255 245 246 243 243 243 243 247 244 237
Height
5685 5686 5687 5687 5688 5689 5690 5691 5692 5694 5696 5699 5702 5703 5704 5704 5705 5708 5710 5712 5714 5715 5716 5717 5719 5719 5720
5672 5673 5674 5675 5676 5677 5677 5678 5679 5681 5684 5687 5690 5692 5693 5694 5696 5698 5701 5704 5705 5707 5708 5710 5711 5712 5712
5660 5660 5661 5662 5663 5664 5664 5664 5665 5667 5669 5673 5676 5679 5681 5682 5684 5687 5690 5693 5694 5696 5698 5701 5702 5703 5704
5646 5647 5647 5648 5649 5649 5649 5649 5650 5652 5654 5657 5659 5663 5665 5668 5670 5674 5677 5679 5681 5684 5687 5690 5692 5694 5695
5632 5632 5632 5632 5632 5633 5634 5633 5633 5636 5636 5639 5643 5646 5649 5652 5656 5660 5662 5663 5666 5671 5675 5678 5680 5682 5684
5615 5615 5616 5615 5616 5616 5617 5617 5617 5619 5620 5621 5623 5625 5630 5635 5639 5643 5645 5647 5651 5657 5662 5665 5668 5670 5673
5597 5598 5598 5598 5600 5599 5599 5600 5600 5601 5604 5604 5606 5607 5611 5616 5620 5623 5627 5631 5636 5641 5646 5650 5654 5658 5662
5578 5579 5580 5581 5582 5582 5583 5582 5581 5580 5582 5586 5589 5590 5592 5596 5599 5604 5608 5614 5620 5625 5629 5633 5638 5644 5649
5561 5562 5563 5564 5565 5566 5565 5565 5564 5562 5561 5564 5567 5571 5573 5574 5577 5582 5588 5595 5600 5606 5611 5616 5622 5627 5633
5544 5545 5546 5546 5547 5548 5548 5547 5546 5545 5542 5547 5545 5549 5555 5554 5553 5558 5565 5573 5579 5585 5590 5597 5603 5609 5615
5528 5528 5529 5529 5529 5530 5529 5528 5527 5525 5523 5528 5526 5526 5530 5535 5533 5533 5540 5547 5554 5561 5568 5575 5582 5589 5596
5511 5512 5512 5512 5512 5512 5511 5510 5508 5507 5505 5507 5508 5508 5509 5512 5514 5513 5516 5523 5532 5538 5544 5551 5559 5567 5576
5495 5495 5495 5495 5494 5494 5492 5491 5490 5490 5489 5491 5491 5491 5491 5494 5496 5495 5500 5502 5508 5516 5520 5527 5535 5543 5553
5479 5479 5479 5479 5479 5479 5478 5477 5476 5475 5475 5477 5478 5477 5477 5478 5480 5482 5485 5488 5490 5497 5502 5507 5514 5521 5529
5466 5467 5467 5467 5467 5467 5467 5466 5464 5463 5462 5463 5465 5465 5465 5466 5465 5468 5472 5475 5479 5484 5489 5493 5498 5505 5511
5455 5455 5456 5456 5457 5456 5456 5456 5455 5453 5452 5453 5453 5453 5453 5454 5455 5456 5460 5464 5468 5473 5478 5482 5485 5492 5497
5444 5445 5446 5446 5447 5446 5446 5445 5444 5443 5442 5442 5442 5445 5444 5444 5443 5444 5450 5453 5458 5461 5466 5471 5474 5478 5484